Location: Bosdarros
(43.2167°N, 0.3667°W)
Time: 03:26:20
(UTC+00:00)

BREEZE-M DEB (TANK) - Pass Details

Date: 22 April 2021
Orbit: 317 x 14226 km, 49.6° (Epoch: 15 May)

Event Time Altitude Azimuth Distance (km) Brightness Sun altitude
Rises 21:04:47 0° 299° (WNW) 2,108 7.0 -21.4°
Reaches altitude 10° 21:06:29 10° 302° (WNW) 1,223 5.5 -21.7°
Enters shadow 21:07:53 36° 313° (NW) 558 3.2 -21.8°
